Вернуться в каталог

STARLINK-36929

АктивенСвязьVLEO
NORAD 68067·PAYLOAD·🇺🇸 United States

Запущен Mar 2, 2026 с Vandenberg Space Force Base

Loading…

Ближайшие Пролёты (ближайшие 24 часа)

TLE

СвежийSource: CelesTrak SupGP

Эпоха: Sep 14, 2026, 22:38 UTC

1 68067C 26041AD  26257.94354167  .00037149  00000+0  10974-2 0  2574
2 68067  53.1573 245.8617 0001414  99.9408 263.9746 15.34375800    19

Отслеживайте STARLINK-36929 в реальном времени с AllMySat

Download on the App Store